Simultaneous Nadir Overpasses (SNOs) Predictions

Prediction of SNOs between NOAA-20 and METOP-C Satellite Orbit:

Table of predicted SNOs for the next 14.0 days since TLE Epoch: 4/21/2022
Index Date (NOAA-20) Time (NOAA-20) Lat,Lon (NOAA-20) SZA (NOAA-20 ) Date (METOP-C) Time (METOP-C) Lat,Lon (METOP-C) SZA (METOP-C ) Distance(km) Time Diff (sec)
1 05/04/2022 11:13:16 73.50, 1.97 57.60 05/04/2022 11:14:22 73.46, 5.01 57.42 96.17 66
2 05/04/2022 12:03:58 -73.40, 169.52 122.53 05/04/2022 12:05:05 -73.36, 172.12 122.68 82.88 67
3 05/04/2022 12:54:40 73.20, -22.73 57.25 05/04/2022 12:55:49 73.19, -20.94 57.15 57.72 69
4 05/04/2022 13:45:22 -73.10, 144.81 122.87 05/04/2022 13:46:33 -73.04, 146.08 123.00 41.69 71
5 05/04/2022 14:36:04 72.90, -47.46 56.91 05/04/2022 14:37:17 72.86, -46.98 56.83 16.58 73
6 05/04/2022 15:26:46 -72.80, 120.07 123.22 05/04/2022 15:28:00 -72.76, 120.16 123.27 5.13 74
7 05/04/2022 16:17:31 72.75, -72.52 56.73 05/04/2022 16:18:41 72.73, -72.58 56.69 2.96 70
8 05/04/2022 17:08:15 -72.76, 94.79 123.29 05/04/2022 17:09:22 -72.74, 94.77 123.31 1.77 67
9 05/04/2022 17:59:01 72.76, -97.91 56.71 05/04/2022 18:00:02 72.76, -97.86 56.70 1.58 61
10 05/04/2022 18:49:45 -72.76, 69.41 123.30 05/04/2022 18:50:43 -72.77, 69.49 123.31 2.77 58
11 05/04/2022 19:40:31 72.76,-123.29 56.69 05/04/2022 19:41:24 72.74,-123.25 56.66 3.16 53
12 05/04/2022 20:31:15 -72.76, 44.03 123.32 05/04/2022 20:32:05 -72.75, 44.10 123.35 3.15 50
13 05/04/2022 21:22:00 72.72,-148.57 56.62 05/04/2022 21:22:46 72.71,-148.64 56.61 2.26 46
14 05/04/2022 22:12:44 -72.72, 18.75 123.39 05/04/2022 22:13:27 -72.72, 18.71 123.39 1.33 43
15 05/04/2022 23:03:30 72.72,-173.95 56.61 05/04/2022 23:04:07 72.74,-173.92 56.62 2.58 37
16 05/04/2022 23:54:14 -72.72, -6.64 123.41 05/04/2022 23:54:49 -72.70, -6.68 123.43 2.77 35
17 05/05/2022 00:45:00 72.72, 160.67 56.59 05/05/2022 00:45:29 72.72, 160.69 56.58 1.13 29
18 05/05/2022 01:35:44 -72.73, -32.02 123.42 05/05/2022 01:36:10 -72.73, -31.96 123.43 1.96 26
19 05/05/2022 02:26:29 72.68, 135.39 56.52 05/05/2022 02:26:51 72.70, 135.31 56.54 3.34 22



Historial Predications of SNOs between NOAA-20 and METOP-C
